Radiation Dose at Monitoring Post of Fukushima Daini Nuclear Power Station
Date,Time,MP-1(microSv/h),MP-2(microSv/h),MP-3(microSv/h),MP-4(microSv/h),MP-5(microSv/h),MP-6(microSv/h),MP-7(microSv/h),Wind Direction,Wind Velocity(m/s),Rain
2017/01/01,00:00,0.390,0.239,0.404,0.376,0.340,0.194,0.166,northwest,5.0,No
2017/01/01,00:10,0.389,0.240,0.406,0.373,0.339,0.194,0.165,northwest,4.5,No
2017/01/01,00:20,0.390,0.239,0.403,0.375,0.341,0.194,0.167,west-northwest,4.3,No
2017/01/01,00:30,0.390,0.240,0.403,0.375,0.340,0.193,0.166,west-northwest,3.6,No
2017/01/01,00:40,0.390,0.240,0.404,0.375,0.340,0.194,0.166,west,2.5,No
2017/01/01,00:50,0.389,0.240,0.403,0.375,0.341,0.195,0.166,northwest,0.9,No
2017/01/01,01:00,0.391,0.240,0.402,0.374,0.341,0.193,0.166,north-northwest,0.6,No
2017/01/01,01:10,0.390,0.240,0.402,0.373,0.341,0.194,0.166,-,CALM,No
2017/01/01,01:20,0.390,0.240,0.404,0.373,0.343,0.194,0.166,southeast,0.8,No
2017/01/01,01:30,0.390,0.238,0.404,0.376,0.342,0.194,0.166,south,1.1,No
2017/01/01,01:40,0.391,0.239,0.402,0.375,0.340,0.194,0.167,west-southwest,2.6,No
2017/01/01,01:50,0.390,0.240,0.404,0.374,0.342,0.194,0.165,west-southwest,2.0,No
2017/01/01,02:00,0.392,0.239,0.403,0.375,0.341,0.193,0.165,south,0.7,No
2017/01/01,02:10,0.391,0.240,0.404,0.375,0.340,0.194,0.166,south,1.2,No
2017/01/01,02:20,0.390,0.239,0.406,0.374,0.342,0.194,0.167,east-southeast,1.4,No
2017/01/01,02:30,0.391,0.240,0.403,0.377,0.342,0.194,0.166,east-southeast,1.3,No
2017/01/01,02:40,0.391,0.239,0.403,0.374,0.341,0.193,0.165,southeast,1.1,No
2017/01/01,02:50,0.392,0.240,0.405,0.374,0.341,0.194,0.166,south,2.4,No
2017/01/01,03:00,0.390,0.241,0.404,0.374,0.341,0.194,0.167,southwest,1.8,No
2017/01/01,03:10,0.390,0.240,0.402,0.374,0.343,0.194,0.166,west,3.9,No
2017/01/01,03:20,0.392,0.238,0.404,0.375,0.340,0.193,0.166,west,3.3,No
2017/01/01,03:30,0.391,0.240,0.403,0.374,0.342,0.194,0.166,south-southwest,0.6,No
2017/01/01,03:40,0.388,0.240,0.403,0.376,0.341,0.194,0.166,west-southwest,2.2,No
2017/01/01,03:50,0.390,0.240,0.403,0.374,0.341,0.193,0.166,west-southwest,1.7,No
2017/01/01,04:00,0.392,0.240,0.404,0.375,0.342,0.193,0.167,west-northwest,1.4,No
2017/01/01,04:10,0.390,0.239,0.403,0.375,0.340,0.193,0.167,northwest,1.6,No
2017/01/01,04:20,0.391,0.239,0.403,0.374,0.340,0.193,0.165,northwest,2.9,No
2017/01/01,04:30,0.392,0.240,0.405,0.375,0.343,0.194,0.166,north-northwest,2.7,No
2017/01/01,04:40,0.392,0.239,0.403,0.375,0.340,0.194,0.166,north,1.7,No
2017/01/01,04:50,0.389,0.240,0.403,0.375,0.341,0.194,0.166,northwest,0.8,No
2017/01/01,05:00,0.389,0.239,0.404,0.375,0.341,0.194,0.166,northwest,0.6,No
2017/01/01,05:10,0.392,0.240,0.404,0.376,0.342,0.194,0.166,north-northwest,1.5,No
2017/01/01,05:20,0.392,0.239,0.402,0.375,0.340,0.193,0.167,north-northwest,3.7,No
2017/01/01,05:30,0.391,0.238,0.403,0.375,0.342,0.195,0.167,north-northwest,2.0,No
2017/01/01,05:40,0.393,0.240,0.405,0.376,0.342,0.194,0.167,north-northwest,3.0,No
2017/01/01,05:50,0.389,0.239,0.403,0.374,0.341,0.193,0.166,north-northwest,3.9,No
2017/01/01,06:00,0.389,0.241,0.403,0.375,0.342,0.193,0.167,west-northwest,3.0,No
2017/01/01,06:10,0.392,0.239,0.405,0.376,0.342,0.194,0.166,northwest,7.2,No
2017/01/01,06:20,0.392,0.239,0.402,0.373,0.340,0.193,0.167,northwest,4.5,No
2017/01/01,06:30,0.389,0.240,0.402,0.373,0.341,0.193,0.165,west-northwest,2.0,No
2017/01/01,06:40,0.390,0.240,0.404,0.376,0.343,0.193,0.165,northwest,2.0,No
2017/01/01,06:50,0.393,0.240,0.403,0.374,0.341,0.193,0.166,west-northwest,3.1,No
2017/01/01,07:00,0.391,0.240,0.403,0.374,0.341,0.193,0.166,northwest,2.3,No
2017/01/01,07:10,0.389,0.240,0.404,0.375,0.342,0.194,0.167,northwest,3.3,No
2017/01/01,07:20,0.391,0.238,0.405,0.375,0.342,0.194,0.166,west-northwest,3.0,No
2017/01/01,07:30,0.390,0.240,0.403,0.374,0.341,0.194,0.166,west-northwest,2.5,No
2017/01/01,07:40,0.390,0.239,0.403,0.375,0.341,0.194,0.165,west-northwest,1.6,No
2017/01/01,07:50,0.391,0.239,0.403,0.374,0.343,0.194,0.166,west-northwest,1.3,No
2017/01/01,08:00,0.391,0.240,0.404,0.373,0.340,0.193,0.167,northwest,1.7,No
2017/01/01,08:10,0.388,0.239,0.404,0.374,0.341,0.194,0.166,west-northwest,2.8,No
2017/01/01,08:20,0.392,0.239,0.403,0.373,0.343,0.194,0.165,west,3.4,No
2017/01/01,08:30,0.391,0.239,0.402,0.375,0.340,0.193,0.166,west-northwest,3.1,No
2017/01/01,08:40,0.390,0.240,0.404,0.374,0.342,0.194,0.165,west-northwest,3.0,No
2017/01/01,08:50,0.391,0.239,0.403,0.376,0.340,0.193,0.165,west-northwest,2.9,No
2017/01/01,09:00,0.390,0.238,0.402,0.375,0.339,0.193,0.166,northwest,2.6,No
2017/01/01,09:10,0.391,0.240,0.403,0.373,0.342,0.194,0.165,north-northwest,2.7,No
2017/01/01,09:20,0.391,0.239,0.405,0.374,0.340,0.194,0.166,northwest,1.8,No
2017/01/01,09:30,0.392,0.241,0.402,0.372,0.339,0.194,0.165,northwest,2.5,No
2017/01/01,09:40,0.390,0.238,0.404,0.372,0.341,0.194,0.167,north-northwest,2.7,No
2017/01/01,09:50,0.390,0.239,0.402,0.373,0.340,0.194,0.164,northwest,3.4,No
2017/01/01,10:00,0.391,0.238,0.400,0.371,0.338,0.194,0.166,west-northwest,3.7,No
2017/01/01,10:10,0.389,0.238,0.405,0.376,0.342,0.194,0.165,west-northwest,2.8,No
2017/01/01,10:20,0.391,0.240,0.402,0.373,0.340,0.195,0.166,northwest,2.8,No
2017/01/01,10:30,0.390,0.240,0.404,0.377,0.339,0.194,0.166,west-northwest,2.7,No
2017/01/01,10:40,0.389,0.238,0.405,0.374,0.344,0.194,0.166,west-northwest,2.6,No
2017/01/01,10:50,0.388,0.240,0.402,0.374,0.338,0.193,0.166,northwest,2.8,No
2017/01/01,11:00,0.389,0.238,0.407,0.374,0.340,0.194,0.165,north-northwest,2.8,No
2017/01/01,11:10,0.388,0.240,0.403,0.375,0.338,0.193,0.166,northwest,2.4,No
2017/01/01,11:20,0.389,0.239,0.402,0.373,0.341,0.195,0.165,northwest,3.7,No
2017/01/01,11:30,0.388,0.240,0.403,0.373,0.339,0.194,0.167,north-northwest,3.9,No
2017/01/01,11:40,0.391,0.238,0.401,0.374,0.341,0.194,0.167,north-northwest,4.1,No
2017/01/01,11:50,0.388,0.239,0.402,0.374,0.339,0.193,0.167,north-northwest,3.3,No
2017/01/01,12:00,0.390,0.240,0.402,0.375,0.340,0.193,0.166,north-northwest,3.3,No
2017/01/01,12:10,0.389,0.239,0.402,0.373,0.341,0.193,0.166,west-northwest,1.4,No
2017/01/01,12:20,0.389,0.239,0.405,0.376,0.341,0.194,0.167,northwest,2.0,No
2017/01/01,12:30,0.392,0.240,0.403,0.376,0.343,0.195,0.166,west,1.6,No
2017/01/01,12:40,0.389,0.239,0.404,0.374,0.340,0.195,0.166,west,2.4,No
2017/01/01,12:50,0.391,0.240,0.400,0.375,0.341,0.195,0.167,west-northwest,4.4,No
2017/01/01,13:00,0.389,0.239,0.402,0.372,0.339,0.195,0.166,west-northwest,4.5,No
2017/01/01,13:10,0.390,0.241,0.402,0.375,0.342,0.194,0.166,west-northwest,7.4,No
2017/01/01,13:20,0.390,0.238,0.405,0.374,0.340,0.196,0.166,west,7.0,No
2017/01/01,13:30,0.391,0.239,0.403,0.377,0.340,0.192,0.165,west-northwest,4.1,No
2017/01/01,13:40,0.391,0.239,0.401,0.373,0.341,0.194,0.166,west,7.3,No
2017/01/01,13:50,0.390,0.239,0.404,0.376,0.340,0.195,0.166,west-northwest,3.9,No
2017/01/01,14:00,0.390,0.239,0.403,0.373,0.342,0.194,0.166,west,3.6,No
2017/01/01,14:10,0.392,0.238,0.402,0.373,0.341,0.194,0.166,west-northwest,4.7,No
2017/01/01,14:20,0.391,0.239,0.402,0.374,0.340,0.194,0.165,west-northwest,5.8,No
2017/01/01,14:30,0.390,0.239,0.404,0.374,0.342,0.194,0.166,west-northwest,6.2,No
2017/01/01,14:40,0.391,0.238,0.406,0.375,0.341,0.193,0.166,west-northwest,5.9,No
2017/01/01,14:50,0.390,0.238,0.404,0.373,0.340,0.195,0.166,west-northwest,4.7,No
2017/01/01,15:00,0.391,0.239,0.403,0.375,0.343,0.194,0.166,northwest,4.0,No
2017/01/01,15:10,0.391,0.239,0.405,0.376,0.341,0.193,0.167,north-northwest,4.9,No
2017/01/01,15:20,0.391,0.240,0.405,0.375,0.342,0.194,0.168,northwest,1.6,No
2017/01/01,15:30,0.390,0.240,0.406,0.377,0.342,0.194,0.166,north-northwest,3.0,No
2017/01/01,15:40,0.390,0.239,0.404,0.375,0.340,0.193,0.167,northwest,0.8,No
2017/01/01,15:50,0.391,0.239,0.404,0.375,0.341,0.194,0.167,west-northwest,2.8,No
2017/01/01,16:00,0.390,0.241,0.401,0.378,0.343,0.194,0.165,west,3.1,No
2017/01/01,16:10,0.391,0.238,0.405,0.375,0.342,0.194,0.167,west,4.4,No
2017/01/01,16:20,0.390,0.239,0.404,0.373,0.344,0.193,0.166,west,4.5,No
2017/01/01,16:30,0.391,0.241,0.404,0.376,0.344,0.194,0.167,west,4.1,No
2017/01/01,16:40,0.391,0.239,0.406,0.376,0.342,0.196,0.167,west,4.2,No
2017/01/01,16:50,0.392,0.239,0.404,0.376,0.341,0.194,0.166,west,2.9,No
2017/01/01,17:00,0.393,0.239,0.403,0.377,0.341,0.194,0.166,west,3.7,No
2017/01/01,17:10,0.391,0.240,0.406,0.375,0.342,0.194,0.165,west-southwest,5.8,No
2017/01/01,17:20,0.390,0.240,0.405,0.375,0.341,0.195,0.166,west,5.6,No
2017/01/01,17:30,0.393,0.240,0.403,0.376,0.342,0.194,0.167,west,2.8,No
2017/01/01,17:40,0.391,0.239,0.405,0.375,0.343,0.195,0.167,southwest,2.6,No
2017/01/01,17:50,0.390,0.238,0.405,0.375,0.341,0.194,0.165,west,2.5,No
2017/01/01,18:00,0.391,0.240,0.403,0.377,0.342,0.194,0.166,west-southwest,3.2,No
2017/01/01,18:10,0.392,0.240,0.404,0.375,0.341,0.194,0.168,southwest,4.5,No
2017/01/01,18:20,0.390,0.239,0.405,0.376,0.340,0.194,0.166,southwest,3.6,No
2017/01/01,18:30,0.389,0.238,0.404,0.377,0.342,0.195,0.166,west-southwest,3.1,No
2017/01/01,18:40,0.390,0.240,0.404,0.375,0.341,0.195,0.167,west-southwest,3.0,No
2017/01/01,18:50,0.391,0.240,0.405,0.374,0.340,0.194,0.166,west-southwest,3.6,No
2017/01/01,19:00,0.389,0.238,0.403,0.375,0.342,0.194,0.166,west-southwest,3.6,No
2017/01/01,19:10,0.391,0.240,0.403,0.375,0.342,0.194,0.166,west-northwest,2.9,No
2017/01/01,19:20,0.390,0.239,0.405,0.374,0.341,0.194,0.166,west,2.3,No
2017/01/01,19:30,0.391,0.238,0.403,0.375,0.340,0.195,0.167,west-southwest,0.9,No
2017/01/01,19:40,0.391,0.239,0.404,0.376,0.340,0.193,0.166,south,1.7,No
2017/01/01,19:50,0.392,0.239,0.405,0.374,0.342,0.194,0.166,southwest,2.1,No
2017/01/01,20:00,0.394,0.239,0.404,0.375,0.342,0.194,0.167,south-southwest,3.2,No
2017/01/01,20:10,0.390,0.238,0.404,0.376,0.340,0.194,0.166,west-southwest,2.2,No
2017/01/01,20:20,0.392,0.239,0.404,0.375,0.343,0.194,0.166,west,3.5,No
2017/01/01,20:30,0.393,0.239,0.403,0.376,0.341,0.195,0.166,west-southwest,1.3,No
2017/01/01,20:40,0.390,0.239,0.402,0.376,0.341,0.195,0.166,south-southwest,3.0,No
2017/01/01,20:50,0.391,0.239,0.405,0.374,0.341,0.194,0.166,south-southwest,2.8,No
2017/01/01,21:00,0.391,0.239,0.402,0.376,0.342,0.193,0.167,southwest,2.8,No
2017/01/01,21:10,0.390,0.238,0.402,0.376,0.340,0.194,0.166,west-southwest,3.4,No
2017/01/01,21:20,0.390,0.239,0.406,0.375,0.343,0.193,0.166,southwest,2.2,No
2017/01/01,21:30,0.393,0.240,0.403,0.375,0.340,0.194,0.167,south-southwest,2.0,No
2017/01/01,21:40,0.390,0.240,0.404,0.374,0.340,0.194,0.166,south-southwest,2.8,No
2017/01/01,21:50,0.392,0.239,0.403,0.374,0.343,0.194,0.167,southwest,2.5,No
2017/01/01,22:00,0.392,0.238,0.405,0.375,0.341,0.193,0.166,south-southwest,2.3,No
2017/01/01,22:10,0.390,0.239,0.403,0.375,0.341,0.195,0.166,southwest,4.6,No
2017/01/01,22:20,0.391,0.239,0.406,0.374,0.342,0.194,0.166,southwest,3.3,No
2017/01/01,22:30,0.390,0.239,0.405,0.375,0.340,0.194,0.165,southwest,4.5,No
2017/01/01,22:40,0.392,0.239,0.404,0.376,0.341,0.194,0.166,west-southwest,3.9,No
2017/01/01,22:50,0.390,0.239,0.405,0.376,0.342,0.194,0.166,southwest,4.1,No
2017/01/01,23:00,0.392,0.239,0.403,0.375,0.342,0.194,0.167,southwest,2.7,No
2017/01/01,23:10,0.392,0.239,0.403,0.375,0.341,0.193,0.166,southwest,1.9,No
2017/01/01,23:20,0.393,0.239,0.406,0.375,0.342,0.194,0.166,southwest,1.6,No
2017/01/01,23:30,0.393,0.239,0.404,0.375,0.341,0.195,0.166,south-southwest,3.1,No
2017/01/01,23:40,0.391,0.239,0.405,0.374,0.340,0.194,0.167,south-southwest,4.3,No
2017/01/01,23:50,0.391,0.240,0.406,0.374,0.341,0.194,0.166,southwest,3.9,No
